Change the Weather History Date:

Monday, October 29, 2012

  Actual Average (KCTY) Record (KCTY)
Temperature  
Mean Temperature 54 °F 67 °F  
Max Temperature 64 °F 80 °F 88 °F (2000)
Min Temperature 42 °F 53 °F 30 °F (2008)
Degree Days  
Heating Degree Days 12 2  
Month to date heating degree days 27  
Since 1 July heating degree days 27  
Cooling Degree Days 0 4  
Month to date cooling degree days 193  
Year to date cooling degree days 2535  
Growing Degree Days 4 (Base 50)    
Moisture  
Dew Point 35 °F    
Average Humidity 54    
Maximum Humidity 82    
Minimum Humidity 28    
Precipitation  
Precipitation 0.00 in 0.09 in 0.88 in (2002)
Month to date precipitation 3.23  
Year to date precipitation 43.06  
Sea Level Pressure  
Sea Level Pressure 29.85 in    
Wind  
Wind Speed 10 mph (NW)    
Max Wind Speed 17 mph    
Max Gust Speed 24 mph    
T = Trace of Precipitation, MM = Missing Value Source: NWS Daily Summary

Daily Weather History Graph

Daily Weather History Graph

Search for Another Location

Airport or City:

Trip Planner

Search our weather history database for the weather conditions in past years. The results will help you decide how hot, cold, wet, or windy it might be!

Date:

Astronomy

Oct. 29, 2012 Rise Set
Actual Time 7:46 AM EDT 6:49 PM EDT
Civil Twilight 7:21 AM EDT 7:13 PM EDT
Nautical Twilight 6:53 AM EDT 7:41 PM EDT
Astronomical Twilight 6:25 AM EDT 8:09 PM EDT
Moon 6:43 PM EDT (10/29) 7:33 AM EDT (10/29)
Length of Visible Light 11h 52m
Length of Day
11h 02m
Full, 100% of the Moon is Illuminated
Oct 29
Full
Oct 29
Full
Nov 6
Last Quarter
Nov 13
New
Nov 20
First Quarter

Hourly Weather History & Observations

Time (EDT) Temp. Windchill Dew Point Humidity Pressure Visibility Wind Dir Wind Speed Gust Speed Precip Events Conditions
12:53 AM 48.9 °F - 43.0 °F 80% 29.86 in - NW 8.1 mph - N/A   Unknown
1:53 AM 50.0 °F - 41.0 °F 71% 29.86 in - NW 10.4 mph 18.4 mph N/A   Unknown
2:53 AM 48.9 °F - 39.0 °F 69% 29.86 in - NW 9.2 mph - N/A   Unknown
3:53 AM 48.9 °F - 37.9 °F 66% 29.86 in - NW 11.5 mph - N/A   Unknown
4:53 AM 46.9 °F - 37.0 °F 68% 29.86 in - NW 8.1 mph - N/A   Unknown
5:53 AM 45.0 °F 41.2 °F 37.0 °F 74% 29.87 in - WNW 6.9 mph - N/A   Unknown
6:53 AM 43.0 °F 38.2 °F 37.9 °F 82% 29.88 in - WNW 8.1 mph - N/A   Unknown
7:53 AM 44.1 °F 39.0 °F 37.0 °F 76% 29.89 in - NW 9.2 mph - N/A   Unknown
8:53 AM 46.9 °F - 37.0 °F 68% 29.91 in - NW 12.7 mph - N/A   Unknown
9:53 AM 50.0 °F - 36.0 °F 59% 29.92 in - NNW 16.1 mph 23.0 mph N/A   Unknown
10:53 AM 53.1 °F - 35.1 °F 50% 29.91 in - NNW 10.4 mph 20.7 mph N/A   Unknown
11:53 AM 55.9 °F - 34.0 °F 44% 29.90 in - NNW 13.8 mph 20.7 mph N/A   Unknown
12:53 PM 59.0 °F - 35.1 °F 41% 29.87 in - NW 11.5 mph 24.2 mph N/A   Unknown
1:53 PM 63.0 °F - 35.1 °F 35% 29.83 in - WNW 17.3 mph 21.9 mph N/A   Unknown
2:53 PM 64.0 °F - 33.1 °F 31% 29.80 in - WNW 11.5 mph 23.0 mph N/A   Unknown
3:53 PM 64.9 °F - 30.9 °F 28% 29.78 in - WNW 16.1 mph 23.0 mph N/A   Unknown
4:53 PM 64.0 °F - 30.9 °F 29% 29.78 in - West 15.0 mph 19.6 mph N/A   Unknown
5:53 PM 62.1 °F - 30.0 °F 30% 29.78 in - WNW 12.7 mph 20.7 mph N/A   Unknown
6:53 PM 55.9 °F - 33.1 °F 42% 29.79 in - WNW 10.4 mph - N/A   Unknown
7:53 PM 54.0 °F - 32.0 °F 43% 29.81 in - WNW 10.4 mph - N/A   Unknown
8:53 PM 52.0 °F - 32.0 °F 47% 29.84 in - WNW 9.2 mph - N/A   Unknown
9:53 PM 50.0 °F - 32.0 °F 50% 29.87 in - West 8.1 mph - N/A   Unknown
10:53 PM 46.0 °F 42.5 °F 32.0 °F 58% 29.88 in - WNW 6.9 mph - N/A   Unknown
11:53 PM 42.1 °F 37.7 °F 32.0 °F 67% 29.88 in - WNW 6.9 mph - N/A   Unknown